,�O�C���x,�����t���O,�O�C���x,�����t���O,�󒲎����x,�����t���O,�󒲎����x,�����t���O,��󒲎����x,�����t���O,����,�����t���O
2003/3/1 0:00,12.3,0,58,0,20.9,0,51.9,0,16.4,0,12.9,0
2003/3/1 0:15,12.2,0,60,0,20.8,0,52,0,16.4,0,13,0
2003/3/1 0:30,12,0,62,0,20.8,0,52,0,16.4,0,13,0
2003/3/1 0:45,12,0,65,0,20.8,0,51.6,0,16.4,0,13.1,0
2003/3/1 1:00,11.7,0,67,0,20.9,0,52.2,0,16.4,0,13.1,0
2003/3/1 1:15,11.7,0,68,0,21,0,57.5,0,16.4,0,13.2,0
2003/3/1 1:30,11.7,0,69,0,21,0,56.5,0,16.4,0,13.2,0
2003/3/1 1:45,11.6,0,67,0,20.8,0,51.2,0,16.4,0,13.3,0
2003/3/1 2:00,11.5,0,69,0,20.8,0,53.1,0,16.4,0,13.3,0
2003/3/1 2:15,11.6,0,69,0,21,0,54.4,0,16.4,0,13.4,0
2003/3/1 2:30,11.5,0,72,0,21,0,53.6,0,16.4,0,13.4,0
2003/3/1 2:45,11.4,0,75,0,21,0,54,0,16.4,0,13.5,0
2003/3/1 3:00,11.3,0,76,0,21,0,53.7,0,16.4,0,13.4,0
2003/3/1 3:15,11.1,0,79,0,20.7,0,51,0,16.4,0,13.2,0
2003/3/1 3:30,11,0,80,0,20.8,0,51.6,0,16.3,0,13.1,0
2003/3/1 3:45,11.2,0,82,0,20.9,0,53.4,0,16.3,0,13.2,0
2003/3/1 4:00,11,0,83,0,20.9,0,57.4,0,16.3,0,13.2,0
2003/3/1 4:15,10.9,0,84,0,20.8,0,55.9,0,16.3,0,13.2,0
2003/3/1 4:30,11.1,0,84,0,20.8,0,55.2,0,16.3,0,13.3,0
2003/3/1 4:45,10.9,0,85,0,20.7,0,54.6,0,16.3,0,13.3,0
2003/3/1 5:00,10.9,0,86,0,20.7,0,54.1,0,16.3,0,13.4,0
2003/3/1 5:15,10.8,0,85,0,20.7,0,53.7,0,16.2,0,13.4,0
2003/3/1 5:30,11,0,86,0,20.6,0,53.4,0,16.2,0,13.5,0
2003/3/1 5:45,10.9,0,86,0,20.6,0,53.1,0,16.2,0,13.5,0
2003/3/1 6:00,11.2,0,87,0,20.6,0,52.9,0,16.2,0,13.5,0
2003/3/1 6:15,11.3,0,86,0,20.6,0,52.7,0,16.2,0,13.6,0
2003/3/1 6:30,11.3,0,87,0,20.6,0,52.6,0,16.2,0,13.6,0
2003/3/1 6:45,11.4,0,87,0,20.5,0,52.4,0,16.2,0,13.7,0
2003/3/1 7:00,11.7,0,86,0,20.5,0,52.4,0,16.2,0,13.7,0
2003/3/1 7:15,12,0,87,0,20.5,0,52.3,0,16.1,0,13.7,0
2003/3/1 7:30,12.1,0,88,0,20.5,0,52.3,0,16.1,0,13.8,0
2003/3/1 7:45,12.2,0,88,0,20.4,0,52.3,0,16.1,0,13.8,0
2003/3/1 8:00,12.3,0,88,0,20.4,0,52.3,0,16.1,0,13.8,0
2003/3/1 8:15,12.4,0,88,0,20.4,0,52.3,0,16.1,0,13.9,0
2003/3/1 8:30,12.5,0,88,0,20.6,0,54.3,0,16.1,0,13.7,0
2003/3/1 8:45,12.6,0,87,0,20.9,0,57.3,0,16.2,0,13.7,0
2003/3/1 9:00,12.5,0,87,0,21,0,58.3,0,16.2,0,12.4,0
2003/3/1 9:15,12.6,0,88,0,21.1,0,58.3,0,16.2,0,12.5,0
2003/3/1 9:30,12.7,0,89,0,21.1,0,58.2,0,16.2,0,12.5,0
2003/3/1 9:45,12.8,0,89,0,21,0,57.8,0,16.2,0,12.5,0
2003/3/1 10:00,12.8,0,90,0,21,0,58.1,0,16.3,0,12.6,0
2003/3/1 10:15,12.8,0,92,0,21.1,0,57.6,0,16.3,0,12.6,0
2003/3/1 10:30,12.9,0,92,0,21.1,0,57.5,0,16.3,0,12.6,0
2003/3/1 10:45,13,0,92,0,21,0,57.4,0,16.5,0,12.6,0
2003/3/1 11:00,13,0,93,0,21,0,57.4,0,16.5,0,12.6,0
2003/3/1 11:15,13,0,92,0,21,0,57.7,0,16.5,0,12.7,0
2003/3/1 11:30,13,0,93,0,21.1,0,60.1,0,16.5,0,12.7,0
2003/3/1 11:45,12.8,0,93,0,21.1,0,61,0,16.5,0,12.8,0
2003/3/1 12:00,12.7,0,94,0,21.1,0,61.3,0,16.5,0,12.8,0
2003/3/1 12:15,12.7,0,94,0,21.1,0,61.6,0,16.5,0,12.9,0
2003/3/1 12:30,12.6,0,95,0,21.1,0,61,0,16.5,0,13.2,0
2003/3/1 12:45,12.6,0,97,0,21.1,0,60.3,0,16.6,0,13.1,0
2003/3/1 13:00,12.4,0,98,0,21.2,0,61,0,16.5,0,13.1,0
2003/3/1 13:15,12.4,0,98,0,21.3,0,62.3,0,16.5,0,13.1,0
2003/3/1 13:30,12.2,0,98,0,21.2,0,62.4,0,16.5,0,13.2,0
2003/3/1 13:45,12.2,0,98,0,21.2,0,62.4,0,16.5,0,13.2,0
2003/3/1 14:00,12.2,0,98,0,21.1,0,62.4,0,16.5,0,13.2,0
2003/3/1 14:15,11.9,0,99,0,21.1,0,62.3,0,16.5,0,13.3,0
2003/3/1 14:30,11.3,0,98,0,21.1,0,62.3,0,16.5,0,13.3,0
2003/3/1 14:45,11.1,0,96,0,21.1,0,61.6,0,16.5,0,13.4,0
2003/3/1 15:00,10.9,0,95,0,21,0,61.1,0,16.5,0,13.2,0
2003/3/1 15:15,10.9,0,94,0,20.9,0,59.7,0,16.5,0,13.3,0
2003/3/1 15:30,10.7,0,93,0,21,0,60.1,0,16.5,0,12.9,0
2003/3/1 15:45,10.8,0,93,0,21,0,61.3,0,16.5,0,13,0
2003/3/1 16:00,10.9,0,91,0,21,0,60.6,0,16.5,0,13.1,0
2003/3/1 16:15,10.9,0,88,0,21,0,60.9,0,16.4,0,13.1,0
2003/3/1 16:30,11,0,88,0,21.1,0,63.8,0,16.4,0,13.1,0
2003/3/1 16:45,10.8,0,86,0,21.1,0,63.6,0,16.4,0,13.2,0
2003/3/1 17:00,10.9,0,84,0,21.1,0,63.1,0,16.4,0,13.2,0
2003/3/1 17:15,10.9,0,83,0,21,0,61.6,0,16.4,0,12.8,0
2003/3/1 17:30,10.8,0,83,0,21.1,0,61.7,0,16.3,0,12.9,0
2003/3/1 17:45,10.9,0,82,0,21,0,61,0,16.4,0,13,0
2003/3/1 18:00,10.9,0,82,0,21,0,60.8,0,16.4,0,13,0
2003/3/1 18:15,10.9,0,79,0,21,0,61,0,16.4,0,13.1,0
2003/3/1 18:30,10.8,0,78,0,21,0,60.9,0,16.4,0,13.2,0
2003/3/1 18:45,10.9,0,80,0,21.1,0,60.8,0,16.5,0,12.7,0
2003/3/1 19:00,10.7,0,80,0,21.1,0,61,0,16.4,0,12.8,0
2003/3/1 19:15,10.4,0,81,0,21.2,0,60.1,0,16.4,0,12.4,0
2003/3/1 19:30,10.5,0,81,0,21.1,0,58.6,0,16.5,0,12.5,0
2003/3/1 19:45,10.4,0,80,0,21.3,0,60.2,0,16.5,0,12.3,0
2003/3/1 20:00,10.4,0,80,0,21.4,0,61.2,0,16.5,0,12.4,0
2003/3/1 20:15,10.5,0,79,0,21.3,0,61.2,0,16.5,0,12.4,0
2003/3/1 20:30,10.4,0,78,0,21.2,0,61,0,16.5,0,12.5,0
2003/3/1 20:45,10.4,0,78,0,21.2,0,61.1,0,16.5,0,12.2,0
2003/3/1 21:00,10.5,0,80,0,21.1,0,61.9,0,16.5,0,12.2,0
2003/3/1 21:15,10.4,0,78,0,21.3,0,63.3,0,16.5,0,12.2,0
2003/3/1 21:30,10.6,0,72,0,21.5,0,64.2,0,16.5,0,12.3,0
2003/3/1 21:45,10.5,0,69,0,21.5,0,63.3,0,16.6,0,12.4,0
2003/3/1 22:00,10.5,0,67,0,21.5,0,64.1,0,16.6,0,12.4,0
2003/3/1 22:15,10.5,0,66,0,21.5,0,64,0,16.6,0,12.5,0
2003/3/1 22:30,10.5,0,64,0,21.5,0,64,0,16.6,0,12.5,0
2003/3/1 22:45,10.5,0,63,0,21.4,0,63.7,0,16.7,0,12.6,0
2003/3/1 23:00,10.6,0,61,0,21.3,0,61,0,16.7,0,12.7,0
2003/3/1 23:15,10.7,0,66,0,21.3,0,61.6,0,16.7,0,12.7,0
2003/3/1 23:30,10.7,0,66,0,21.5,0,67.9,0,16.7,0,12.8,0
2003/3/1 23:45,10.6,0,67,0,21.4,0,66.9,0,16.7,0,12.8,0
2003/3/2 0:00,10.7,0,64,0,22.2,0,65.8,0,16.7,0,12.9,0
2003/3/2 0:15,10.8,0,62,0,21.7,0,65.5,0,16.8,0,13,0
2003/3/2 0:30,10.8,0,62,0,21.6,0,65.2,0,16.7,0,13,0
2003/3/2 0:45,10.9,0,59,0,21.5,0,64.3,0,16.8,0,13.1,0
2003/3/2 1:00,10.7,0,59,0,21.4,0,63.4,0,16.8,0,13.2,0
2003/3/2 1:15,10.7,0,61,0,21.3,0,62.4,0,16.8,0,13.2,0
2003/3/2 1:30,10.6,0,61,0,21.3,0,61.7,0,16.8,0,13.3,0
2003/3/2 1:45,10.5,0,61,0,21.2,0,61.2,0,16.8,0,13.3,0
2003/3/2 2:00,10.6,0,61,0,21.2,0,60.7,0,16.7,0,13.4,0
2003/3/2 2:15,10.5,0,63,0,21.1,0,60.3,0,16.7,0,13.4,0
2003/3/2 2:30,10.5,0,63,0,21.1,0,59.8,0,16.7,0,13.5,0
2003/3/2 2:45,10.5,0,64,0,21.1,0,59.4,0,16.7,0,13.6,0
2003/3/2 3:00,10.5,0,64,0,21.1,0,59.2,0,16.6,0,13.6,0
2003/3/2 3:15,10.1,0,67,0,21.1,0,58.9,0,16.6,0,13.7,0
2003/3/2 3:30,10.3,0,66,0,21,0,58.7,0,16.6,0,13.7,0
2003/3/2 3:45,10.1,0,67,0,21,0,58.4,0,16.6,0,13.8,0
2003/3/2 4:00,10.1,0,64,0,21,0,58.2,0,16.6,0,13.8,0
2003/3/2 4:15,10.1,0,64,0,21,0,58.1,0,16.6,0,13.9,0
2003/3/2 4:30,10.2,0,64,0,21,0,57.9,0,16.5,0,13.9,0
2003/3/2 4:45,9.7,0,68,0,21,0,57.6,0,16.5,0,14,0
2003/3/2 5:00,9.5,0,69,0,20.9,0,57.5,0,16.5,0,14,0
2003/3/2 5:15,9.5,0,70,0,20.9,0,57.4,0,16.5,0,14.1,0
2003/3/2 5:30,9.6,0,70,0,20.9,0,57.4,0,16.5,0,14.1,0
2003/3/2 5:45,9.5,0,70,0,20.9,0,57.1,0,16.5,0,14.1,0
2003/3/2 6:00,9.5,0,70,0,20.9,0,56.9,0,16.5,0,14.2,0
2003/3/2 6:15,9.5,0,70,0,20.9,0,56.9,0,16.4,0,14.2,0
2003/3/2 6:30,9.4,0,71,0,20.9,0,56.7,0,16.4,0,14.3,0
2003/3/2 6:45,9.4,0,70,0,20.9,0,56.6,0,16.4,0,14.3,0
2003/3/2 7:00,9.2,0,70,0,20.8,0,56.6,0,16.4,0,14.3,0
2003/3/2 7:15,9.4,0,71,0,20.8,0,56.2,0,16.3,0,14.4,0
2003/3/2 7:30,9.5,0,71,0,20.8,0,56.1,0,16.3,0,14.4,0
2003/3/2 7:45,9.5,0,71,0,20.8,0,56.3,0,16.3,0,14.4,0
2003/3/2 8:00,9.5,0,71,0,20.9,0,56.7,0,16.3,0,13.9,0
2003/3/2 8:15,9.9,0,70,0,21,0,57.3,0,16.3,0,13.9,0
2003/3/2 8:30,10,0,69,0,21.2,0,57.7,0,16.3,0,14,0
2003/3/2 8:45,10.3,0,67,0,21.2,0,57.8,0,16.3,0,14,0
2003/3/2 9:00,10.4,0,65,0,21.3,0,58,0,16.3,0,14,0
2003/3/2 9:15,10.7,0,64,0,21.4,0,58.8,0,16.3,0,13.5,0
2003/3/2 9:30,11,0,62,0,21.8,0,59.8,0,16.3,0,13.5,0
2003/3/2 9:45,11.2,0,60,0,21.9,0,59.5,0,16.3,0,12.8,0
2003/3/2 10:00,11.3,0,54,0,22,0,59.3,0,16.4,0,12.2,0
2003/3/2 10:15,11.3,0,53,0,22,0,58.7,0,16.4,0,12.2,0
2003/3/2 10:30,11.6,0,54,0,21.6,0,50.7,0,16.5,0,12.2,0
2003/3/2 10:45,11.9,0,55,0,21.3,0,46.9,0,16.7,0,12.1,0
2003/3/2 11:00,12,0,52,0,21,0,44.2,0,16.8,0,12.1,0
2003/3/2 11:15,11.7,0,53,0,21,0,44.9,0,16.8,0,12,0
2003/3/2 11:30,11.6,0,54,0,20.9,0,45.9,0,16.8,0,12.2,0
2003/3/2 11:45,11.7,0,54,0,20.8,0,45.1,0,16.9,0,12.2,0
2003/3/2 12:00,11.6,0,54,0,20.8,0,44.8,0,16.9,0,12.3,0
2003/3/2 12:15,11.5,0,51,0,20.8,0,46.3,0,16.9,0,12.3,0
2003/3/2 12:30,11.3,0,53,0,21.1,0,47.8,0,16.9,0,12.4,0
2003/3/2 12:45,11.6,0,56,0,21.1,0,46.5,0,16.9,0,12.4,0
2003/3/2 13:00,11.7,0,58,0,21.1,0,47.5,0,16.9,0,12.7,0
2003/3/2 13:15,11.5,0,60,0,21.1,0,47.6,0,17,0,12.4,0
2003/3/2 13:30,11.7,0,59,0,21.1,0,47.3,0,17,0,12.5,0
2003/3/2 13:45,12,0,59,0,20.9,0,45.2,0,17,0,12.5,0
2003/3/2 14:00,11.7,0,61,0,20.8,0,45.1,0,17,0,12.4,0
2003/3/2 14:15,11.7,0,60,0,19.4,0,42.3,0,16.6,0,12.5,0
2003/3/2 14:30,12.1,0,60,0,20.2,0,45.1,0,16.6,0,12.3,0
2003/3/2 14:45,12.5,0,58,0,20.5,0,46.2,0,16.8,0,12.2,0
2003/3/2 15:00,12.7,0,57,0,20.7,0,47.1,0,16.8,0,12.2,0
2003/3/2 15:15,12.7,0,56,0,20.7,0,47.6,0,16.8,0,12.3,0
2003/3/2 15:30,13.1,0,56,0,20.8,0,49.7,0,16.8,0,12.3,0
2003/3/2 15:45,14,0,54,0,20.8,0,50.2,0,16.8,0,12.4,0
2003/3/2 16:00,14.3,0,54,0,20.8,0,50.7,0,16.8,0,12.4,0
2003/3/2 16:15,13.9,0,54,0,20.8,0,50.9,0,16.8,0,12.5,0
2003/3/2 16:30,13.6,0,57,0,20.8,0,51.2,0,16.8,0,12.5,0
2003/3/2 16:45,13.1,0,64,0,20.8,0,51.2,0,16.9,0,12.6,0
2003/3/2 17:00,13,0,64,0,20.7,0,51.3,0,16.9,0,12.6,0
2003/3/2 17:15,13.4,0,61,0,20.7,0,51.5,0,16.9,0,12.7,0
2003/3/2 17:30,13,0,65,0,20.7,0,51.8,0,16.9,0,12.7,0
2003/3/2 17:45,13,0,67,0,20.6,0,52,0,16.9,0,12.8,0
2003/3/2 18:00,12.7,0,69,0,20.6,0,52.1,0,16.9,0,12.8,0
2003/3/2 18:15,12.5,0,70,0,20.6,0,52.3,0,16.8,0,12.9,0
2003/3/2 18:30,12.5,0,71,0,20.5,0,52.5,0,16.8,0,12.9,0
2003/3/2 18:45,12.4,0,70,0,20.5,0,52.5,0,16.8,0,13,0
2003/3/2 19:00,12.4,0,69,0,20.5,0,52.6,0,16.8,0,13,0
2003/3/2 19:15,12.5,0,68,0,20.4,0,52.7,0,16.8,0,13.1,0
2003/3/2 19:30,12.5,0,66,0,20.4,0,52.7,0,16.8,0,13.1,0
2003/3/2 19:45,13.6,0,64,0,20.4,0,52.8,0,16.8,0,13.2,0
2003/3/2 20:00,13.1,0,55,0,20.3,0,46.3,0,16.8,0,13.2,0
2003/3/2 20:15,12.6,0,56,0,20.3,0,49.9,0,17,0,13.2,0
2003/3/2 20:30,12.5,0,57,0,20.5,0,50.8,0,17.1,0,13.3,0
2003/3/2 20:45,12.6,0,58,0,20.6,0,51,0,17.1,0,12.7,0
2003/3/2 21:00,12.4,0,56,0,20.7,0,51.4,0,17,0,12.7,0
2003/3/2 21:15,12.5,0,54,0,20.8,0,52,0,17,0,12.8,0
2003/3/2 21:30,12.4,0,53,0,20.8,0,53,0,17,0,12.8,0
2003/3/2 21:45,12.4,0,52,0,20.9,0,53.9,0,17,0,12.9,0
2003/3/2 22:00,12.3,0,55,0,21,0,55.2,0,17.1,0,12.9,0
2003/3/2 22:15,12.1,0,57,0,20.9,0,54.9,0,17.1,0,13,0
2003/3/2 22:30,12,0,56,0,21,0,55.6,0,17.2,0,13,0
2003/3/2 22:45,12,0,49,0,21.1,0,59.2,0,17.2,0,13.1,0
2003/3/2 23:00,11.9,0,54,0,21.1,0,58,0,17.1,0,13.1,0
2003/3/2 23:15,11.9,0,50,0,21.1,0,56.4,0,17.1,0,13.2,0
2003/3/2 23:30,11.9,0,49,0,21.2,0,55.6,0,17.1,0,13.3,0
2003/3/2 23:45,12,0,52,0,21.2,0,56.3,0,17.1,0,13.3,0
2003/3/3 0:00,12,0,51,0,21.1,0,53.5,0,17.1,0,12.9,0
2003/3/3 0:15,11.9,0,51,0,21.1,0,53.7,0,17.2,0,12.9,0
2003/3/3 0:30,11.9,0,53,0,21.1,0,53.7,0,17.2,0,12.7,0
2003/3/3 0:45,12,0,57,0,21,0,53.8,0,17.1,0,12.7,0
2003/3/3 1:00,12.4,0,59,0,20.9,0,53.6,0,17.1,0,12.7,0
2003/3/3 1:15,12.2,0,59,0,20.9,0,53.5,0,17.1,0,12.8,0
2003/3/3 1:30,11.9,0,63,0,20.8,0,53.7,0,17.1,0,12.9,0
2003/3/3 1:45,12.1,0,65,0,20.7,0,53.5,0,17.1,0,12.9,0
2003/3/3 2:00,12.1,0,67,0,20.7,0,53.4,0,17,0,13,0
2003/3/3 2:15,11.9,0,69,0,20.7,0,53.6,0,17,0,13,0
2003/3/3 2:30,12,0,70,0,20.7,0,53.6,0,17,0,13.1,0
2003/3/3 2:45,11.8,0,70,0,20.7,0,53.5,0,16.9,0,13.1,0
2003/3/3 3:00,11.8,0,71,0,20.7,0,53.5,0,16.9,0,13.2,0
2003/3/3 3:15,12,0,70,0,20.6,0,53.5,0,16.9,0,13.2,0
2003/3/3 3:30,12,0,70,0,20.6,0,53.4,0,16.9,0,13.3,0
2003/3/3 3:45,12.1,0,73,0,20.6,0,53.4,0,16.9,0,13.3,0
2003/3/3 4:00,12.1,0,75,0,20.6,0,53.3,0,16.9,0,13.4,0
2003/3/3 4:15,12.2,0,78,0,20.6,0,53.3,0,16.8,0,13.4,0
2003/3/3 4:30,12.3,0,79,0,20.6,0,53.4,0,16.8,0,13.5,0
2003/3/3 4:45,12.4,0,79,0,20.6,0,53.5,0,16.8,0,13.5,0
2003/3/3 5:00,12.4,0,80,0,20.5,0,53.5,0,16.8,0,13.6,0
2003/3/3 5:15,12.4,0,80,0,20.5,0,53.5,0,16.8,0,13.6,0
2003/3/3 5:30,12.6,0,81,0,20.5,0,53.5,0,16.8,0,13.7,0
2003/3/3 5:45,12.5,0,82,0,20.5,0,53.6,0,16.8,0,13.7,0
2003/3/3 6:00,12.7,0,83,0,20.5,0,53.6,0,16.8,0,13.8,0
2003/3/3 6:15,12.8,0,84,0,20.5,0,53.6,0,16.8,0,13.8,0
2003/3/3 6:30,12.8,0,85,0,20.5,0,53.7,0,16.8,0,13.9,0
2003/3/3 6:45,13,0,85,0,20.5,0,53.8,0,16.8,0,13.9,0
2003/3/3 7:00,12.9,0,87,0,20.5,0,53.8,0,16.8,0,14,0
2003/3/3 7:15,13,0,88,0,20.5,0,53.9,0,16.7,0,14.7,0
2003/3/3 7:30,13.2,0,89,0,20.6,0,55.7,0,16.7,0,14,0
2003/3/3 7:45,13.2,0,90,0,20.9,0,58.7,0,16.8,0,12.3,0
2003/3/3 8:00,13.1,0,91,0,20.9,0,58.4,0,16.8,0,12.3,0
2003/3/3 8:15,13,0,92,0,21,0,58.4,0,16.9,0,11.6,0
2003/3/3 8:30,13.3,0,96,0,21,0,58.1,0,16.9,0,11.8,0
2003/3/3 8:45,13.5,0,99,0,21,0,57.9,0,16.9,0,11.8,0
2003/3/3 9:00,13.5,0,99,0,21,0,58.1,0,17,0,11.9,0
2003/3/3 9:15,13.1,0,98,0,21,0,58,0,17,0,11.9,0
2003/3/3 9:30,13,0,98,0,21,0,58.1,0,17,0,12,0
2003/3/3 9:45,12.9,0,98,0,21,0,58.1,0,17,0,12.1,0
2003/3/3 10:00,12.9,0,94,0,21,0,57.8,0,17,0,12.8,0
2003/3/3 10:15,12.9,0,95,0,21,0,57.2,0,17,0,12.8,0
2003/3/3 10:30,12.7,0,96,0,20.9,0,59,0,17,0,12.9,0
2003/3/3 10:45,12.3,0,97,0,21,0,60.2,0,16.9,0,12.9,0
2003/3/3 11:00,11.7,0,97,0,21.1,0,61,0,16.9,0,13,0
2003/3/3 11:15,11.6,0,96,0,21.1,0,61,0,16.9,0,13.1,0
2003/3/3 11:30,11.8,0,94,0,21.1,0,60.6,0,16.9,0,13.1,0
2003/3/3 11:45,12,0,89,0,21.1,0,61.4,0,16.9,0,13.1,0
2003/3/3 12:00,12,0,81,0,21.1,0,61.3,0,16.9,0,13.1,0
2003/3/3 12:15,12.1,0,75,0,21.1,0,61.3,0,16.9,0,13.2,0
2003/3/3 12:30,12.2,0,73,0,21.1,0,60.9,0,16.9,0,13.2,0
2003/3/3 12:45,12.4,0,71,0,21.1,0,61,0,17,0,13.3,0
2003/3/3 13:00,12.6,0,69,0,21.2,0,60.2,0,17,0,13.3,0
2003/3/3 13:15,12.7,0,68,0,21.2,0,59.9,0,17.1,0,13.4,0
2003/3/3 13:30,12.8,0,68,0,21.2,0,58.9,0,17.1,0,13.1,0
2003/3/3 13:45,12,0,72,0,19.8,0,48.1,0,16.7,0,13.2,0
2003/3/3 14:00,11.7,0,75,0,19,0,50.4,0,16.3,0,13.2,0
2003/3/3 14:15,11.7,0,75,0,19.9,0,52.3,0,16.3,0,13.2,0
2003/3/3 14:30,11.8,0,70,0,20.2,0,52.7,0,16.3,0,13.3,0
2003/3/3 14:45,12,0,62,0,20.3,0,52.9,0,16.4,0,13.3,0
2003/3/3 15:00,12.3,0,58,0,20.2,0,50.5,0,16.5,0,13.4,0
2003/3/3 15:15,12.2,0,57,0,20.3,0,51.6,0,16.6,0,13.1,0
2003/3/3 15:30,12.1,0,58,0,20.5,0,53.3,0,16.8,0,13.2,0
2003/3/3 15:45,12,0,54,0,20.6,0,53.7,0,16.9,0,13.2,0
2003/3/3 16:00,12.2,0,57,0,20.7,0,54.6,0,16.9,0,13.3,0
2003/3/3 16:15,12.1,0,54,0,20.7,0,55.1,0,16.9,0,13.3,0
2003/3/3 16:30,11.9,0,57,0,20.7,0,55.4,0,16.9,0,13.3,0
2003/3/3 16:45,12,0,56,0,20.7,0,55.6,0,16.9,0,13.3,0
2003/3/3 17:00,12,0,57,0,20.8,0,56.2,0,16.9,0,13.4,0
2003/3/3 17:15,12,0,52,0,20.7,0,54.5,0,17,0,13.1,0
2003/3/3 17:30,12.1,0,65,0,20.7,0,54.4,0,17.1,0,13.1,0
2003/3/3 17:45,11.7,0,67,0,20.6,0,53.9,0,17.2,0,13.1,0
2003/3/3 18:00,11.5,0,68,0,20.6,0,54.7,0,17.3,0,13.2,0
2003/3/3 18:15,11.2,0,66,0,20.7,0,55,0,17.3,0,13.2,0
2003/3/3 18:30,11.3,0,66,0,20.7,0,55.3,0,17.4,0,13.3,0
2003/3/3 18:45,11,0,65,0,20.8,0,58.1,0,17.5,0,13.3,0
2003/3/3 19:00,10.8,0,68,0,20.9,0,59.3,0,17.4,0,13.3,0
2003/3/3 19:15,10.2,0,73,0,21.1,0,60,0,17.4,0,13.4,0
2003/3/3 19:30,9.9,0,73,0,21.1,0,60.6,0,17.3,0,13.4,0
2003/3/3 19:45,10,0,70,0,21.1,0,58.7,0,17.2,0,12.9,0
2003/3/3 20:00,9.7,0,70,0,21,0,58,0,17.2,0,13,0
2003/3/3 20:15,9.5,0,69,0,21,0,58.2,0,17.1,0,13,0
2003/3/3 20:30,9.5,0,69,0,20.8,0,56.9,0,17.1,0,12.7,0
2003/3/3 20:45,9.3,0,69,0,20.9,0,58.5,0,17,0,12.7,0
2003/3/3 21:00,9.3,0,65,0,21,0,62.2,0,17,0,12.7,0
2003/3/3 21:15,9.2,0,64,0,20.9,0,60.6,0,16.9,0,12.8,0
2003/3/3 21:30,9.3,0,64,0,20.9,0,59.5,0,16.9,0,12.8,0
2003/3/3 21:45,8.2,0,76,0,20.9,0,59.5,0,16.9,0,12.9,0
2003/3/3 22:00,7.9,0,79,0,20.9,0,59.7,0,17,0,12.9,0
2003/3/3 22:15,8.3,0,70,0,20.8,0,58.1,0,17.1,0,12.7,0
2003/3/3 22:30,8.3,0,69,0,20.8,0,58.4,0,17.1,0,12.6,0
2003/3/3 22:45,8.5,0,66,0,20.9,0,58.6,0,17,0,12.6,0
2003/3/3 23:00,8.4,0,66,0,21,0,59.4,0,17,0,12.7,0
2003/3/3 23:15,8.3,0,66,0,21,0,59.5,0,17,0,12.7,0
2003/3/3 23:30,7.5,0,70,0,21,0,59.4,0,17,0,12.8,0
2003/3/3 23:45,7.8,0,69,0,20.9,0,59.3,0,17,0,12.8,0
2003/3/4 0:00,7.3,0,75,0,21,0,62.8,0,17,0,12.9,0
2003/3/4 0:15,7.5,0,70,0,20.9,0,61.8,0,17,0,12.9,0
2003/3/4 0:30,7.6,0,68,0,20.8,0,60.5,0,16.9,0,13,0
2003/3/4 0:45,7.6,0,67,0,20.8,0,59.5,0,16.8,0,13.1,0
2003/3/4 1:00,7.5,0,68,0,20.7,0,58.7,0,16.8,0,13.1,0
2003/3/4 1:15,7.1,0,66,0,20.7,0,58.1,0,16.7,0,13.2,0
2003/3/4 1:30,7.1,0,64,0,20.6,0,57.8,0,16.6,0,13.2,0
2003/3/4 1:45,7,0,61,0,20.6,0,57.4,0,16.6,0,13.2,0
2003/3/4 2:00,7,0,65,0,20.6,0,56.5,0,16.5,0,13.3,0
2003/3/4 2:15,7.2,0,64,0,20.6,0,56,0,16.5,0,13.3,0
2003/3/4 2:30,6.7,0,69,0,20.6,0,55.8,0,16.4,0,13.4,0
2003/3/4 2:45,6.5,0,69,0,20.6,0,56.1,0,16.3,0,13.4,0
2003/3/4 3:00,6.5,0,69,0,20.5,0,55.9,0,16.3,0,13.4,0
2003/3/4 3:15,6.7,0,69,0,20.4,0,55.5,0,16.2,0,13.5,0
2003/3/4 3:30,6.8,0,63,0,20.4,0,55.2,0,16.2,0,13.5,0
2003/3/4 3:45,6.4,0,69,0,20.4,0,55,0,16.2,0,13.6,0
2003/3/4 4:00,6.2,0,66,0,20.4,0,54.8,0,16.1,0,13.6,0
2003/3/4 4:15,6.2,0,65,0,20.4,0,54.3,0,16.1,0,13.6,0
2003/3/4 4:30,6.3,0,64,0,20.3,0,53.9,0,16,0,13.7,0
2003/3/4 4:45,6.4,0,65,0,20.3,0,53.7,0,16,0,13.7,0
2003/3/4 5:00,6.6,0,63,0,20.3,0,53.4,0,16,0,13.7,0
2003/3/4 5:15,6.2,0,65,0,20.3,0,53.3,0,15.9,0,13.8,0
2003/3/4 5:30,5.6,0,68,0,20.3,0,52.8,0,15.9,0,13.8,0
2003/3/4 5:45,5.9,0,67,0,20.3,0,53.5,0,15.9,0,13.1,0
2003/3/4 6:00,5.9,0,71,0,20.3,0,53.3,0,15.9,0,13.1,0
2003/3/4 6:15,6.2,0,70,0,20.2,0,52.9,0,15.8,0,13.2,0
2003/3/4 6:30,6.5,0,66,0,20.2,0,52.7,0,15.8,0,13.2,0
2003/3/4 6:45,6.4,0,59,0,20.2,0,52.6,0,15.7,0,13.2,0
2003/3/4 7:00,6.4,0,54,0,20.2,0,52.3,0,15.7,0,13.3,0
2003/3/4 7:15,6.6,0,51,0,20.2,0,51.4,0,15.7,0,12.9,0
2003/3/4 7:30,6.5,0,50,0,20.2,0,53.8,0,15.7,0,12.9,0
2003/3/4 7:45,6.9,0,49,0,20.4,0,56.3,0,15.7,0,12.3,0
2003/3/4 8:00,7.1,0,49,0,20.8,0,58.9,0,15.8,0,12,0
2003/3/4 8:15,6.8,0,54,0,20.8,0,58.4,0,15.8,0,11.7,0
2003/3/4 8:30,7.3,0,55,0,20.8,0,58.3,0,15.9,0,11.7,0
2003/3/4 8:45,7.3,0,52,0,20.8,0,58.9,0,15.9,0,11.8,0
2003/3/4 9:00,6.7,0,55,0,20.8,0,58.7,0,16,0,11.8,0
2003/3/4 9:15,7.1,0,47,0,20.8,0,58.4,0,16,0,11.9,0
2003/3/4 9:30,7.1,0,48,0,20.8,0,58.5,0,16.1,0,11.9,0
2003/3/4 9:45,7.1,0,48,0,20.8,0,57.7,0,16.1,0,12,0
2003/3/4 10:00,7,0,49,0,20.8,0,57.1,0,16.1,0,12.1,0
2003/3/4 10:15,6.7,0,59,0,20.8,0,57,0,16.1,0,12.1,0
2003/3/4 10:30,6.8,0,58,0,20.9,0,56.7,0,16.1,0,12.2,0
2003/3/4 10:45,6.9,0,52,0,20.8,0,56.6,0,16.1,0,12.2,0
2003/3/4 11:00,7.1,0,46,0,20.8,0,56.3,0,16,0,12.3,0
2003/3/4 11:15,7,0,50,0,20.9,0,55.6,0,16,0,12.6,0
2003/3/4 11:30,7,0,51,0,20.7,0,50.3,0,16,0,12.7,0
2003/3/4 11:45,7,0,52,0,20.4,0,46.2,0,16,0,12.7,0
2003/3/4 12:00,7.6,0,53,0,20.7,0,48.1,0,16,0,12.7,0
2003/3/4 12:15,7.2,0,54,0,20.8,0,51.3,0,16,0,12.8,0
2003/3/4 12:30,7.6,0,49,0,20.8,0,52.1,0,15.9,0,12.8,0
2003/3/4 12:45,7.4,0,45,0,20.9,0,53.2,0,15.9,0,12.9,0
2003/3/4 13:00,7.5,0,44,0,20.9,0,53.8,0,15.9,0,12.9,0
2003/3/4 13:15,7.6,0,44,0,20.8,0,53.8,0,15.9,0,13,0
2003/3/4 13:30,7.6,0,50,0,20.8,0,53.7,0,15.9,0,13,0
2003/3/4 13:45,7.3,0,58,0,20.8,0,53.8,0,15.8,0,13,0
2003/3/4 14:00,7,0,58,0,20.7,0,54.2,0,15.8,0,13.1,0
2003/3/4 14:15,7.1,0,58,0,20.7,0,54.3,0,15.8,0,13.1,0
2003/3/4 14:30,7.4,0,51,0,20.7,0,54.3,0,15.8,0,13.1,0
2003/3/4 14:45,7.6,0,52,0,20.7,0,54.3,0,15.8,0,13.2,0
2003/3/4 15:00,7.3,0,52,0,20.6,0,52.7,0,15.8,0,13.1,0
2003/3/4 15:15,7.3,0,50,0,20.5,0,46.9,0,15.9,0,13.1,0
2003/3/4 15:30,7.3,0,50,0,18.9,0,33.1,0,15,0,13.2,0
2003/3/4 15:45,7.9,0,48,0,18.5,0,34.8,0,14.7,0,13.2,0
2003/3/4 16:00,7.9,0,48,0,19.3,0,39,0,14.9,0,13.2,0
2003/3/4 16:15,8,0,48,0,19.6,0,41.1,0,15,0,13.2,0
2003/3/4 16:30,7.6,0,48,0,19.8,0,43.3,0,15,0,13.1,0
2003/3/4 16:45,7.5,0,48,0,20,0,45.6,0,15.1,0,13.1,0
2003/3/4 17:00,8,0,49,0,20.2,0,47.2,0,15.2,0,13.1,0
2003/3/4 17:15,8.2,0,48,0,19.9,0,39.7,0,15.2,0,13.2,0
2003/3/4 17:30,7.4,0,46,0,19.6,0,38.7,0,15.1,0,12.9,0
2003/3/4 17:45,7.3,0,46,0,19.9,0,42.5,0,15.2,0,12.9,0
2003/3/4 18:00,8.9,0,44,0,20,0,43.8,0,15.2,0,12.9,0
2003/3/4 18:15,7.1,0,44,0,20.1,0,44.4,0,15.2,0,13,0
2003/3/4 18:30,7.3,0,46,0,20.2,0,47.5,0,15.3,0,13,0
2003/3/4 18:45,7,0,46,0,20.4,0,50.9,0,15.3,0,13,0
2003/3/4 19:00,7,0,47,0,20.4,0,48.8,0,15.3,0,13.1,0
2003/3/4 19:15,7,0,46,0,20.3,0,47,0,15.3,0,13.1,0
2003/3/4 19:30,7.1,0,45,0,20.2,0,45.8,0,15.3,0,13.1,0
2003/3/4 19:45,7.3,0,44,0,20.6,0,51.2,0,15.3,0,12.6,0
2003/3/4 20:00,7.2,0,44,0,20.8,0,53.8,0,15.3,0,12.6,0
2003/3/4 20:15,7.3,0,43,0,20.8,0,54.6,0,15.3,0,12.6,0
2003/3/4 20:30,7.2,0,43,0,20.8,0,56,0,15.4,0,11.8,0
2003/3/4 20:45,7.3,0,43,0,20.7,0,52.4,0,15.5,0,11.6,0
2003/3/4 21:00,7.2,0,43,0,20.6,0,52.8,0,15.5,0,11.7,0
2003/3/4 21:15,7.3,0,43,0,20.6,0,52.6,0,15.5,0,11.7,0
2003/3/4 21:30,7.4,0,42,0,20.7,0,54,0,15.6,0,11.7,0
2003/3/4 21:45,7.3,0,43,0,20.7,0,57.1,0,15.7,0,11.8,0
2003/3/4 22:00,7.3,0,43,0,20.8,0,55.6,0,15.7,0,11.8,0
2003/3/4 22:15,7.6,0,44,0,20.8,0,55.5,0,15.8,0,11.9,0
2003/3/4 22:30,7.4,0,43,0,20.8,0,55.7,0,15.8,0,11.7,0
2003/3/4 22:45,7.3,0,42,0,21.2,0,60.9,0,15.8,0,11.9,0
2003/3/4 23:00,7.2,0,41,0,21.2,0,60.5,0,15.8,0,11.9,0
2003/3/4 23:15,7.2,0,41,0,21.1,0,60.6,0,15.8,0,11.9,0
2003/3/4 23:30,7.2,0,40,0,21,0,58.9,0,15.9,0,12,0
2003/3/4 23:45,7.1,0,41,0,21.1,0,60,0,15.8,0,12,0
2003/3/5 0:00,7.1,0,40,0,20.9,0,52.4,0,15.9,0,12.1,0
2003/3/5 0:15,7.1,0,40,0,20.9,0,58.5,0,15.9,0,12.1,0
2003/3/5 0:30,7.1,0,40,0,20.9,0,56.2,0,15.9,0,12.2,0
2003/3/5 0:45,6.7,0,41,0,20.8,0,54.8,0,15.9,0,12.2,0
2003/3/5 1:00,6.7,0,41,0,21,0,55.5,0,16,0,12.3,0
2003/3/5 1:15,6.7,0,42,0,20.8,0,52.3,0,15.9,0,12.4,0
2003/3/5 1:30,7,0,42,0,20.8,0,53.3,0,16,0,12.5,0
2003/3/5 1:45,7,0,41,0,20.8,0,53.1,0,15.9,0,12.5,0
2003/3/5 2:00,7,0,44,0,20.7,0,53.2,0,15.9,0,12.6,0
2003/3/5 2:15,7,0,45,0,20.6,0,53,0,15.9,0,12.6,0
2003/3/5 2:30,7,0,45,0,20.5,0,52.7,0,15.8,0,12.7,0
2003/3/5 2:45,7,0,46,0,20.6,0,52.6,0,15.8,0,12.7,0
2003/3/5 3:00,7,0,46,0,20.5,0,52.3,0,15.8,0,12.8,0
2003/3/5 3:15,7,0,46,0,20.5,0,52.3,0,15.8,0,12.8,0
2003/3/5 3:30,6.9,0,46,0,20.4,0,52.3,0,15.7,0,12.9,0
2003/3/5 3:45,6.9,0,47,0,20.4,0,52.1,0,15.7,0,12.9,0
2003/3/5 4:00,6.7,0,48,0,20.4,0,51.9,0,15.7,0,13,0
2003/3/5 4:15,6.5,0,49,0,20.3,0,52,0,15.7,0,13,0
2003/3/5 4:30,6.4,0,50,0,20.3,0,51.8,0,15.7,0,13.1,0
2003/3/5 4:45,6.4,0,51,0,20.3,0,51.7,0,15.6,0,13.1,0
2003/3/5 5:00,6.3,0,52,0,20.2,0,51.5,0,15.6,0,13.2,0
2003/3/5 5:15,6.2,0,53,0,20.2,0,51.5,0,15.6,0,13.2,0
2003/3/5 5:30,6.1,0,54,0,20.2,0,51.1,0,15.6,0,13.2,0
2003/3/5 5:45,6.1,0,54,0,20.1,0,50.9,0,15.5,0,13.3,0
2003/3/5 6:00,6.1,0,54,0,20.1,0,50.8,0,15.5,0,13.3,0
2003/3/5 6:15,6.1,0,55,0,20.1,0,50.6,0,15.5,0,13.4,0
2003/3/5 6:30,6.3,0,55,0,20.1,0,50.5,0,15.5,0,13.4,0
2003/3/5 6:45,6.3,0,55,0,20.1,0,50.4,0,15.5,0,13.4,0
2003/3/5 7:00,6.3,0,56,0,20,0,50.3,0,15.4,0,13.5,0
2003/3/5 7:15,6.3,0,57,0,20,0,50.2,0,15.4,0,13.5,0
2003/3/5 7:30,6.7,0,55,0,20.2,0,53.6,0,15.5,0,12.3,0
2003/3/5 7:45,6.6,0,54,0,20.5,0,55.1,0,15.5,0,12.4,0
2003/3/5 8:00,7,0,58,0,20.4,0,53.5,0,15.5,0,12,0
2003/3/5 8:15,7,0,53,0,20.4,0,52.7,0,15.5,0,12.1,0
2003/3/5 8:30,7,0,54,0,20.4,0,53.2,0,15.5,0,11.8,0
2003/3/5 8:45,7.2,0,53,0,20.4,0,53.4,0,15.5,0,11.9,0
2003/3/5 9:00,7.2,0,53,0,20.3,0,53.6,0,15.5,0,11.9,0
2003/3/5 9:15,7.3,0,53,0,20.4,0,54,0,15.5,0,12,0
2003/3/5 9:30,7.3,0,52,0,20.3,0,53.9,0,15.5,0,12,0
2003/3/5 9:45,7.7,0,52,0,20.2,0,53.2,0,15.5,0,12.1,0
2003/3/5 10:00,7.6,0,50,0,20.1,0,53.1,0,15.5,0,12.1,0
2003/3/5 10:15,7.7,0,50,0,20.2,0,53,0,15.5,0,12.2,0
2003/3/5 10:30,7.9,0,49,0,20.2,0,53,0,15.5,0,12.2,0
2003/3/5 10:45,7.9,0,49,0,20.2,0,53.8,0,15.5,0,12.3,0
2003/3/5 11:00,8.1,0,47,0,20.4,0,55.3,0,15.5,0,12.3,0
2003/3/5 11:15,8,0,46,0,20.5,0,55.3,0,15.5,0,12.4,0
2003/3/5 11:30,8.5,0,46,0,20.5,0,55.2,0,15.5,0,12.5,0
2003/3/5 11:45,8.6,0,45,0,20.5,0,55.5,0,15.5,0,12.5,0
2003/3/5 12:00,8.6,0,43,0,20.5,0,55.2,0,15.5,0,12.5,0
2003/3/5 12:15,8.6,0,41,0,20.5,0,54.9,0,15.5,0,12.5,0
2003/3/5 12:30,9.2,0,40,0,20.5,0,54.9,0,15.6,0,12.5,0
2003/3/5 12:45,9.1,0,40,0,20.4,0,52.5,0,15.6,0,12.6,0
2003/3/5 13:00,8.9,0,39,0,20.4,0,53.5,0,15.6,0,12.6,0
2003/3/5 13:15,9.2,0,38,0,20.4,0,54.4,0,15.6,0,12.7,0
2003/3/5 13:30,9,0,38,0,20.4,0,54.3,0,15.6,0,12.8,0
2003/3/5 13:45,8.4,0,41,0,20.5,0,54.8,0,15.6,0,12.8,0
2003/3/5 14:00,8.5,0,41,0,20.5,0,54.9,0,15.6,0,12.8,0
2003/3/5 14:15,8.6,0,41,0,20.4,0,54.9,0,15.6,0,12.9,0